| time (UTC) | temp F | wind direction | speed knots | gust knots | rain 1hr in | rain 24hr in | rain mn in | humidity % | barometer mb |
| 20260902060504 | 64 | 131 | 2.6 | 0.0 | 0.00 | 0.00 | 0.00 | 92 | 1017.4 |
| 20260902060003 | 64 | 151 | 3.5 | 0.0 | 0.00 | 0.00 | 0.00 | 93 | 1017.4 |
| 20260902055503 | 64 | 128 | 4.3 | 0.0 | 0.00 | 0.00 | 0.00 | 93 | 1017.1 |
| 20260902055003 | 64 | 134 | 4.3 | 0.0 | 0.00 | 0.00 | 0.00 | 93 | 1017.2 |
| 20260902054501 | 64 | 128 | 3.5 | 0.0 | 0.00 | 0.00 | 0.00 | 93 | 1017.1 |
| 20260902054002 | 64 | 146 | 3.5 | 0.0 | 0.00 | 0.00 | 0.00 | 93 | 1017.2 |
| 20260902053606 | 64 | 134 | 2.6 | 0.0 | 0.00 | 0.00 | 0.00 | 93 | 1017.2 |
| 20260902053100 | 64 | 132 | 0.9 | 0.0 | 0.00 | 0.00 | 0.00 | 92 | 1017.2 |
| 20260902052603 | 65 | 142 | 1.7 | 0.0 | 0.00 | 0.00 | 0.00 | 93 | 1017.2 |
| 20260902052058 | 65 | 129 | 3.5 | 0.0 | 0.00 | 0.00 | 0.00 | 93 | 1017.2 |
| 20260902051600 | 65 | 136 | 3.5 | 0.0 | 0.00 | 0.00 | 0.00 | 93 | 1017.0 |
| 20260902051058 | 65 | 130 | 2.6 | 0.0 | 0.00 | 0.00 | 0.00 | 93 | 1017.0 |
| 20260902050557 | 65 | 143 | 2.6 | 0.0 | 0.00 | 0.00 | 0.00 | 93 | 1017.0 |
| 20260902050057 | 65 | 128 | 1.7 | 0.0 | 0.00 | 0.00 | 0.00 | 93 | 1016.9 |
| 20260902045559 | 65 | 163 | 1.7 | 0.0 | 0.00 | 0.00 | 0.00 | 93 | 1016.9 |
| 20260902045055 | 65 | 157 | 1.7 | 0.0 | 0.00 | 0.00 | 0.00 | 93 | 1016.8 |
| 20260902044556 | 65 | 141 | 2.6 | 0.0 | 0.00 | 0.00 | 0.00 | 93 | 1016.7 |
| 20260902044054 | 65 | 123 | 2.6 | 0.0 | 0.00 | 0.00 | 0.00 | 93 | 1016.5 |
| 20260902043552 | 65 | 137 | 4.3 | 0.0 | 0.00 | 0.00 | 0.00 | 93 | 1016.5 |
| 20260902043059 | 65 | 121 | 4.3 | 0.0 | 0.00 | 0.00 | 0.00 | 93 | 1016.3 |
| 20260902042553 | 65 | 132 | 3.5 | 0.0 | 0.00 | 0.00 | 0.00 | 93 | 1016.1 |
| 20260902042050 | 65 | 115 | 3.5 | 0.0 | 0.00 | 0.00 | 0.00 | 94 | 1016.1 |
| 20260902041550 | 65 | 114 | 2.6 | 0.0 | 0.00 | 0.00 | 0.00 | 94 | 1016.1 |
| 20260902041049 | 66 | 119 | 2.6 | 0.0 | 0.00 | 0.00 | 0.00 | 94 | 1016.1 |
| 20260902040551 | 66 | 115 | 2.6 | 0.0 | 0.00 | 0.00 | 0.00 | 94 | 1016.0 |
| 20260902040047 | 66 | 115 | 2.6 | 0.0 | 0.00 | 0.00 | 0.00 | 94 | 1015.8 |
| 20260902035547 | 66 | 101 | 2.6 | 0.0 | 0.00 | 0.00 | 0.00 | 94 | 1015.8 |
| 20260902035047 | 66 | 122 | 1.7 | 0.0 | 0.00 | 0.00 | 0.00 | 94 | 1015.8 |
| 20260902034547 | 66 | 133 | 1.7 | 0.0 | 0.00 | 0.00 | 0.00 | 94 | 1015.8 |
| 20260902034049 | 66 | 136 | 0.9 | 0.0 | 0.00 | 0.00 | 0.00 | 94 | 1015.8 |
| 20260902033546 | 66 | 200 | 0.0 | 0.0 | 0.00 | 0.00 | 0.00 | 94 | 1015.8 |
| 20260902033102 | 66 | 212 | 0.0 | 0.0 | 0.00 | 0.00 | 0.00 | 94 | 1015.8 |
| 20260902032550 | 66 | 212 | 0.9 | 0.0 | 0.00 | 0.00 | 0.00 | 94 | 1015.8 |
| 20260902032046 | 66 | 182 | 0.9 | 0.0 | 0.00 | 0.00 | 0.00 | 94 | 1016.0 |
| 20260902031546 | 66 | 153 | 2.6 | 0.0 | 0.00 | 0.00 | 0.00 | 93 | 1015.8 |
| 20260902031046 | 66 | 137 | 3.5 | 0.0 | 0.00 | 0.00 | 0.00 | 93 | 1016.0 |
| 20260902030549 | 66 | 137 | 4.3 | 0.0 | 0.00 | 0.00 | 0.00 | 93 | 1015.8 |
| 20260902030045 | 66 | 132 | 3.5 | 0.0 | 0.00 | 0.00 | 0.00 | 93 | 1015.9 |
| 20260902025546 | 66 | 133 | 2.6 | 0.0 | 0.00 | 0.00 | 0.00 | 93 | 1015.9 |
| 20260902025046 | 66 | 117 | 2.6 | 0.0 | 0.00 | 0.00 | 0.00 | 93 | 1015.9 |
| 20260902024546 | 66 | 130 | 0.9 | 0.0 | 0.00 | 0.00 | 0.00 | 94 | 1015.9 |
| 20260902024045 | 66 | 154 | 0.0 | 0.0 | 0.00 | 0.00 | 0.00 | 93 | 1015.8 |
| 20260902023544 | 66 | 173 | 0.9 | 0.0 | 0.00 | 0.00 | 0.00 | 94 | 1015.8 |
| 20260902023049 | 66 | 173 | 0.9 | 0.0 | 0.00 | 0.00 | 0.00 | 94 | 1015.8 |
| 20260902022548 | 66 | 172 | 0.0 | 0.0 | 0.00 | 0.00 | 0.00 | 94 | 1016.0 |
| 20260902022044 | 66 | 136 | 0.0 | 0.0 | 0.00 | 0.00 | 0.00 | 93 | 1016.0 |
| 20260902021544 | 66 | 136 | 0.0 | 0.0 | 0.00 | 0.00 | 0.00 | 93 | 1015.9 |
| 20260902021045 | 66 | 136 | 0.0 | 0.0 | 0.00 | 0.00 | 0.00 | 93 | 1015.9 |
| 20260902020544 | 66 | 136 | 0.0 | 0.0 | 0.00 | 0.00 | 0.00 | 93 | 1015.9 |
| 20260902020044 | 66 | 136 | 0.0 | 0.0 | 0.00 | 0.00 | 0.00 | 93 | 1016.0 |
| 20260902015544 | 66 | 136 | 0.0 | 0.0 | 0.00 | 0.00 | 0.00 | 93 | 1015.9 |
| 20260902015044 | 66 | 136 | 0.0 | 0.0 | 0.00 | 0.00 | 0.00 | 93 | 1015.6 |
| 20260902014544 | 67 | 136 | 0.0 | 0.0 | 0.00 | 0.00 | 0.00 | 93 | 1015.5 |
| 20260902014043 | 67 | 136 | 0.0 | 0.0 | 0.00 | 0.00 | 0.00 | 93 | 1015.5 |
| 20260902013543 | 67 | 136 | 0.0 | 0.0 | 0.00 | 0.00 | 0.00 | 93 | 1015.5 |
| 20260902013043 | 67 | 136 | 0.0 | 0.0 | 0.00 | 0.00 | 0.00 | 93 | 1015.5 |
| 20260902012542 | 67 | 136 | 0.9 | 0.0 | 0.00 | 0.00 | 0.00 | 93 | 1015.4 |
| 20260902012044 | 67 | 136 | 0.9 | 0.0 | 0.00 | 0.00 | 0.00 | 93 | 1015.3 |
| 20260902011543 | 67 | 138 | 0.9 | 0.0 | 0.00 | 0.00 | 0.00 | 93 | 1015.2 |
| 20260902011044 | 67 | 139 | 0.0 | 0.0 | 0.00 | 0.00 | 0.00 | 93 | 1015.1 |
| 20260902010542 | 67 | 121 | 0.0 | 0.0 | 0.00 | 0.00 | 0.00 | 93 | 1015.2 |
| 20260902010047 | 67 | 119 | 0.0 | 0.0 | 0.00 | 0.00 | 0.00 | 93 | 1015.2 |
| 20260902005543 | 67 | 119 | 0.0 | 0.0 | 0.00 | 0.00 | 0.00 | 93 | 1015.1 |
| 20260902005045 | 67 | 118 | 0.0 | 0.0 | 0.00 | 0.00 | 0.00 | 93 | 1015.2 |
| 20260902004542 | 67 | 118 | 0.0 | 0.0 | 0.00 | 0.00 | 0.00 | 93 | 1015.2 |
| 20260902004041 | 67 | 118 | 0.0 | 0.0 | 0.00 | 0.00 | 0.00 | 92 | 1015.1 |
| 20260902003545 | 67 | 118 | 0.9 | 0.0 | 0.00 | 0.00 | 0.00 | 92 | 1015.1 |
| 20260902003041 | 67 | 118 | 1.7 | 0.0 | 0.00 | 0.00 | 0.00 | 92 | 1015.0 |
| 20260902002541 | 67 | 115 | 1.7 | 0.0 | 0.00 | 0.00 | 0.00 | 92 | 1014.9 |
| 20260902002041 | 67 | 67 | 1.7 | 0.0 | 0.00 | 0.00 | 0.00 | 92 | 1015.0 |
| 20260902001541 | 67 | 65 | 1.7 | 0.0 | 0.00 | 0.00 | 0.00 | 93 | 1014.9 |
| 20260902001042 | 67 | 95 | 2.6 | 0.0 | 0.00 | 0.00 | 0.00 | 92 | 1014.8 |
| 20260902000541 | 67 | 67 | 2.6 | 0.0 | 0.00 | 0.00 | 0.00 | 92 | 1014.9 |
| 20260902000041 | 67 | 65 | 1.7 | 0.0 | 0.00 | 0.00 | 0.00 | 92 | 1014.9 |
| 20260901235544 | 68 | 103 | 0.9 | 0.0 | 0.00 | 0.00 | 0.00 | 92 | 1014.8 |
| 20260901235042 | 68 | 103 | 0.9 | 0.0 | 0.00 | 0.00 | 0.00 | 92 | 1014.8 |
| 20260901234540 | 68 | 103 | 0.0 | 0.0 | 0.00 | 0.00 | 0.00 | 92 | 1014.6 |
| 20260901234040 | 68 | 83 | 0.0 | 0.0 | 0.00 | 0.00 | 0.00 | 92 | 1014.7 |
| 20260901233541 | 68 | 83 | 0.0 | 0.0 | 0.00 | 0.00 | 0.00 | 91 | 1014.7 |
| 20260901233039 | 68 | 83 | 0.9 | 0.0 | 0.00 | 0.00 | 0.00 | 91 | 1014.8 |
| 20260901232539 | 68 | 83 | 0.9 | 0.0 | 0.00 | 0.00 | 0.00 | 91 | 1014.7 |
| 20260901232039 | 68 | 79 | 0.0 | 0.0 | 0.00 | 0.00 | 0.00 | 91 | 1014.6 |
| 20260901231541 | 68 | 79 | 0.9 | 0.0 | 0.00 | 0.00 | 0.00 | 90 | 1014.7 |
| 20260901231039 | 68 | 79 | 1.7 | 0.0 | 0.00 | 0.00 | 0.00 | 90 | 1014.6 |
| 20260901230539 | 68 | 80 | 2.6 | 0.0 | 0.00 | 0.00 | 0.00 | 91 | 1014.5 |
| 20260901230045 | 68 | 112 | 3.5 | 0.0 | 0.00 | 0.00 | 0.00 | 90 | 1014.6 |
| 20260901225538 | 68 | 117 | 3.5 | 0.0 | 0.00 | 0.00 | 0.00 | 90 | 1014.6 |
| 20260901225038 | 68 | 121 | 3.5 | 0.0 | 0.00 | 0.00 | 0.00 | 90 | 1014.6 |
| 20260901224539 | 68 | 130 | 1.7 | 0.0 | 0.00 | 0.00 | 0.00 | 90 | 1014.6 |
| 20260901224040 | 69 | 86 | 1.7 | 0.0 | 0.00 | 0.00 | 0.00 | 91 | 1014.7 |
| 20260901223538 | 69 | 98 | 1.7 | 0.0 | 0.00 | 0.00 | 0.00 | 91 | 1014.6 |
| 20260901223038 | 69 | 104 | 1.7 | 0.0 | 0.00 | 0.00 | 0.00 | 90 | 1014.7 |
| 20260901222537 | 69 | 104 | 1.7 | 0.0 | 0.00 | 0.00 | 0.00 | 90 | 1014.5 |
| 20260901222037 | 69 | 47 | 1.7 | 0.0 | 0.00 | 0.00 | 0.00 | 90 | 1014.5 |
| 20260901221603 | 69 | 84 | 1.7 | 0.0 | 0.00 | 0.00 | 0.00 | 90 | 1014.5 |
| 20260901221038 | 69 | 101 | 2.6 | 0.0 | 0.00 | 0.00 | 0.00 | 91 | 1014.3 |
| 20260901220537 | 69 | 111 | 2.6 | 0.0 | 0.00 | 0.00 | 0.00 | 91 | 1014.1 |
| 20260901220038 | 69 | 96 | 2.6 | 0.0 | 0.00 | 0.00 | 0.00 | 90 | 1014.4 |
| 20260901215538 | 69 | 74 | 3.5 | 0.0 | 0.00 | 0.00 | 0.00 | 90 | 1014.5 |
| 20260901215037 | 69 | 67 | 3.5 | 0.0 | 0.00 | 0.00 | 0.00 | 90 | 1014.7 |
| 20260901214537 | 69 | 70 | 3.5 | 0.0 | 0.00 | 0.00 | 0.00 | 90 | 1014.7 |
| 20260901214037 | 69 | 58 | 3.5 | 0.0 | 0.00 | 0.00 | 0.00 | 90 | 1014.7 |
| 20260901213535 | 68 | 57 | 2.6 | 0.0 | 0.00 | 0.00 | 0.00 | 90 | 1014.7 |
| 20260901213057 | 68 | 41 | 1.7 | 0.0 | 0.00 | 0.00 | 0.00 | 90 | 1014.7 |
| 20260901212534 | 68 | 64 | 1.7 | 0.0 | 0.00 | 0.00 | 0.00 | 90 | 1014.6 |
| 20260901212034 | 68 | 51 | 0.9 | 0.0 | 0.00 | 0.00 | 0.00 | 90 | 1014.4 |
| 20260901211541 | 68 | 115 | 0.9 | 0.0 | 0.00 | 0.00 | 0.00 | 90 | 1014.4 |
| 20260901211033 | 68 | 115 | 1.7 | 0.0 | 0.00 | 0.00 | 0.00 | 90 | 1014.4 |
| 20260901210534 | 68 | 121 | 3.5 | 0.0 | 0.00 | 0.00 | 0.00 | 91 | 1014.2 |
| 20260901210038 | 68 | 113 | 4.3 | 0.0 | 0.00 | 0.00 | 0.00 | 91 | 1014.2 |
| 20260901205532 | 68 | 114 | 5.2 | 0.0 | 0.00 | 0.00 | 0.00 | 92 | 1014.1 |
| 20260901205031 | 68 | 112 | 4.3 | 0.0 | 0.00 | 0.00 | 0.00 | 93 | 1014.1 |
| 20260901204530 | 67 | 111 | 2.6 | 0.0 | 0.00 | 0.00 | 0.00 | 93 | 1014.1 |
| 20260901204032 | 67 | 116 | 2.6 | 0.0 | 0.00 | 0.00 | 0.00 | 93 | 1014.1 |
| 20260901203534 | 67 | 119 | 2.6 | 0.0 | 0.00 | 0.00 | 0.00 | 93 | 1014.2 |
| 20260901203040 | 67 | 116 | 1.7 | 0.0 | 0.00 | 0.00 | 0.00 | 94 | 1014.1 |
| 20260901202529 | 67 | 123 | 2.6 | 0.0 | 0.00 | 0.00 | 0.00 | 94 | 1014.2 |
| 20260901202029 | 67 | 123 | 2.6 | 0.0 | 0.00 | 0.00 | 0.00 | 94 | 1014.3 |
| 20260901201529 | 67 | 122 | 0.9 | 0.0 | 0.00 | 0.00 | 0.00 | 94 | 1014.3 |
| 20260901201029 | 67 | 112 | 0.9 | 0.0 | 0.00 | 0.00 | 0.00 | 94 | 1014.4 |
| 20260901200533 | 67 | 111 | 1.7 | 0.0 | 0.00 | 0.00 | 0.00 | 94 | 1014.3 |
| 20260901200039 | 67 | 111 | 2.6 | 0.0 | 0.00 | 0.00 | 0.00 | 94 | 1014.3 |
| 20260901195530 | 67 | 105 | 2.6 | 0.0 | 0.00 | 0.00 | 0.00 | 94 | 1014.3 |
| 20260901195031 | 67 | 92 | 3.5 | 0.0 | 0.00 | 0.00 | 0.00 | 94 | 1014.4 |
| 20260901194529 | 67 | 78 | 3.5 | 0.0 | 0.00 | 0.00 | 0.00 | 95 | 1014.3 |
| 20260901194028 | 67 | 109 | 3.5 | 0.0 | 0.00 | 0.00 | 0.00 | 95 | 1014.3 |
| 20260901193528 | 67 | 126 | 3.5 | 0.0 | 0.00 | 0.00 | 0.00 | 94 | 1014.4 |
| 20260901193029 | 67 | 102 | 2.6 | 0.0 | 0.00 | 0.00 | 0.00 | 94 | 1014.3 |
| 20260901192527 | 67 | 104 | 2.6 | 0.0 | 0.00 | 0.00 | 0.00 | 94 | 1014.3 |
| 20260901192030 | 67 | 111 | 3.5 | 0.0 | 0.00 | 0.00 | 0.00 | 94 | 1014.0 |
| 20260901191528 | 67 | 113 | 3.5 | 0.0 | 0.00 | 0.00 | 0.00 | 94 | 1013.9 |
| 20260901191030 | 67 | 109 | 3.5 | 0.0 | 0.00 | 0.00 | 0.00 | 94 | 1013.9 |
| 20260901190527 | 67 | 133 | 3.5 | 0.0 | 0.00 | 0.00 | 0.00 | 94 | 1014.0 |
| 20260901190027 | 67 | 107 | 4.3 | 0.0 | 0.00 | 0.00 | 0.00 | 94 | 1014.0 |
| 20260901185527 | 67 | 117 | 4.3 | 0.0 | 0.00 | 0.00 | 0.00 | 94 | 1014.0 |
| 20260901185026 | 67 | 107 | 5.2 | 0.0 | 0.00 | 0.00 | 0.00 | 95 | 1014.0 |
| 20260901184532 | 67 | 101 | 5.2 | 0.0 | 0.00 | 0.00 | 0.00 | 95 | 1014.0 |
| 20260901184026 | 67 | 98 | 5.2 | 0.0 | 0.00 | 0.00 | 0.00 | 95 | 1014.0 |
| 20260901183525 | 67 | 113 | 4.3 | 0.0 | 0.00 | 0.00 | 0.00 | 95 | 1014.0 |
| 20260901183025 | 67 | 109 | 3.5 | 0.0 | 0.00 | 0.00 | 0.00 | 95 | 1014.0 |
| 20260901182525 | 67 | 109 | 3.5 | 0.0 | 0.00 | 0.00 | 0.00 | 96 | 1014.0 |
| 20260901182025 | 67 | 108 | 4.3 | 0.0 | 0.00 | 0.00 | 0.00 | 96 | 1013.9 |
| 20260901181524 | 67 | 115 | 4.3 | 0.0 | 0.00 | 0.00 | 0.00 | 96 | 1014.0 |
| 20260901181024 | 67 | 127 | 4.3 | 0.0 | 0.00 | 0.00 | 0.00 | 96 | 1013.9 |
| 20260901180524 | 67 | 132 | 4.3 | 0.0 | 0.00 | 0.00 | 0.00 | 96 | 1014.0 |
| 20260901180023 | 67 | 120 | 4.3 | 0.0 | 0.00 | 0.00 | 0.00 | 96 | 1013.9 |
| 20260901175523 | 67 | 119 | 3.5 | 0.0 | 0.00 | 0.00 | 0.00 | 96 | 1013.9 |
| 20260901175022 | 67 | 119 | 4.3 | 0.0 | 0.00 | 0.00 | 0.00 | 96 | 1013.8 |
| 20260901174523 | 67 | 110 | 5.2 | 0.0 | 0.00 | 0.00 | 0.00 | 95 | 1013.7 |
| 20260901174024 | 67 | 117 | 4.3 | 0.0 | 0.00 | 0.00 | 0.00 | 96 | 1013.7 |
| 20260901173521 | 67 | 116 | 3.5 | 0.0 | 0.00 | 0.00 | 0.00 | 96 | 1013.9 |
| 20260901173021 | 67 | 104 | 3.5 | 0.0 | 0.00 | 0.00 | 0.00 | 96 | 1013.8 |
| 20260901172521 | 67 | 82 | 3.5 | 0.0 | 0.00 | 0.00 | 0.00 | 96 | 1013.9 |
| 20260901172023 | 67 | 83 | 3.5 | 0.0 | 0.00 | 0.00 | 0.00 | 96 | 1013.8 |
| 20260901171524 | 67 | 106 | 4.3 | 0.0 | 0.00 | 0.00 | 0.00 | 96 | 1013.8 |
| 20260901171021 | 67 | 110 | 4.3 | 0.0 | 0.00 | 0.00 | 0.00 | 96 | 1013.7 |
| 20260901170521 | 67 | 109 | 4.3 | 0.0 | 0.00 | 0.00 | 0.00 | 96 | 1013.7 |
| 20260901170020 | 67 | 107 | 3.5 | 0.0 | 0.00 | 0.00 | 0.00 | 96 | 1013.7 |
| 20260901165521 | 67 | 109 | 2.6 | 0.0 | 0.00 | 0.00 | 0.00 | 96 | 1013.6 |
| 20260901165022 | 67 | 88 | 2.6 | 0.0 | 0.00 | 0.00 | 0.00 | 96 | 1013.6 |
| 20260901164520 | 67 | 122 | 2.6 | 0.0 | 0.00 | 0.00 | 0.00 | 97 | 1013.7 |
| 20260901164020 | 67 | 105 | 2.6 | 0.0 | 0.00 | 0.00 | 0.00 | 96 | 1013.7 |
| 20260901163518 | 66 | 92 | 0.9 | 0.0 | 0.00 | 0.00 | 0.00 | 96 | 1013.9 |
| 20260901163018 | 66 | 102 | 0.9 | 0.0 | 0.00 | 0.00 | 0.00 | 96 | 1014.0 |
| 20260901162518 | 66 | 102 | 0.9 | 0.0 | 0.00 | 0.00 | 0.00 | 96 | 1014.1 |
| 20260901162020 | 66 | 102 | 0.9 | 0.0 | 0.00 | 0.00 | 0.00 | 96 | 1014.0 |
| 20260901161517 | 66 | 93 | 1.7 | 0.0 | 0.00 | 0.00 | 0.00 | 96 | 1014.0 |
| 20260901161017 | 66 | 68 | 1.7 | 0.0 | 0.00 | 0.00 | 0.00 | 96 | 1014.1 |
| 20260901160515 | 66 | 64 | 0.9 | 0.0 | 0.00 | 0.00 | 0.00 | 96 | 1014.1 |
| 20260901160021 | 66 | 98 | 0.0 | 0.0 | 0.00 | 0.00 | 0.00 | 96 | 1014.0 |
| 20260901155516 | 66 | 98 | 0.0 | 0.0 | 0.00 | 0.00 | 0.00 | 96 | 1014.2 |
| 20260901155016 | 66 | 98 | 0.9 | 0.0 | 0.00 | 0.00 | 0.00 | 96 | 1014.0 |
| 20260901154518 | 66 | 98 | 1.7 | 0.0 | 0.00 | 0.00 | 0.00 | 96 | 1014.1 |
| 20260901154017 | 66 | 98 | 1.7 | 0.0 | 0.00 | 0.00 | 0.00 | 96 | 1014.0 |
| 20260901153518 | 66 | 100 | 1.7 | 0.0 | 0.00 | 0.00 | 0.00 | 96 | 1014.0 |
| 20260901153020 | 66 | 86 | 0.9 | 0.0 | 0.00 | 0.00 | 0.00 | 96 | 1014.1 |
| 20260901152514 | 66 | 238 | 0.9 | 0.0 | 0.00 | 0.00 | 0.00 | 95 | 1014.0 |
| 20260901152015 | 66 | 238 | 0.9 | 0.0 | 0.00 | 0.00 | 0.00 | 96 | 1013.9 |
| 20260901151516 | 66 | 225 | 0.9 | 0.0 | 0.00 | 0.00 | 0.00 | 96 | 1013.9 |
| 20260901151014 | 66 | 224 | 0.9 | 0.0 | 0.00 | 0.00 | 0.00 | 96 | 1013.8 |
| 20260901150513 | 66 | 222 | 0.9 | 0.0 | 0.00 | 0.00 | 0.00 | 96 | 1013.5 |
| 20260901150013 | 66 | 222 | 1.7 | 0.0 | 0.00 | 0.00 | 0.00 | 96 | 1013.5 |
| 20260901145515 | 66 | 215 | 1.7 | 0.0 | 0.00 | 0.00 | 0.00 | 96 | 1013.3 |
| 20260901145013 | 66 | 190 | 1.7 | 0.0 | 0.00 | 0.00 | 0.00 | 96 | 1013.0 |
| 20260901144513 | 66 | 219 | 0.9 | 0.0 | 0.00 | 0.00 | 0.00 | 96 | 1012.9 |
| 20260901144012 | 66 | 142 | 2.6 | 0.0 | 0.00 | 0.00 | 0.00 | 96 | 1013.0 |
| 20260901143511 | 66 | 171 | 4.3 | 0.0 | 0.00 | 0.00 | 0.00 | 96 | 1013.3 |
| 20260901143011 | 66 | 135 | 7.0 | 0.0 | 0.00 | 0.00 | 0.00 | 96 | 1013.1 |
| 20260901142510 | 66 | 327 | 5.2 | 0.0 | 0.00 | 0.00 | 0.00 | 96 | 1014.9 |
| 20260901142013 | 66 | 331 | 1.7 | 0.0 | 0.00 | 0.00 | 0.00 | 96 | 1014.8 |
| 20260901141509 | 66 | 117 | 0.0 | 0.0 | 0.00 | 0.00 | 0.00 | 96 | 1014.0 |
| 20260901141012 | 66 | 117 | 0.9 | 0.0 | 0.00 | 0.00 | 0.00 | 96 | 1013.8 |
| 20260901140509 | 66 | 142 | 0.0 | 0.0 | 0.00 | 0.00 | 0.00 | 96 | 1013.9 |
| 20260901140014 | 66 | 143 | 0.0 | 0.0 | 0.00 | 0.00 | 0.00 | 96 | 1013.9 |
| 20260901135513 | 66 | 142 | 0.0 | 0.0 | 0.00 | 0.00 | 0.00 | 96 | 1013.8 |
| 20260901135009 | 66 | 142 | 0.9 | 0.0 | 0.00 | 0.00 | 0.00 | 96 | 1013.7 |
| 20260901134509 | 66 | 142 | 0.9 | 0.0 | 0.00 | 0.00 | 0.00 | 96 | 1013.7 |
| 20260901134008 | 66 | 144 | 0.0 | 0.0 | 0.00 | 0.00 | 0.00 | 96 | 1013.8 |
| 20260901133507 | 66 | 144 | 0.0 | 0.0 | 0.00 | 0.00 | 0.00 | 96 | 1013.9 |
| 20260901133008 | 66 | 142 | 0.0 | 0.0 | 0.00 | 0.00 | 0.00 | 96 | 1013.8 |
| 20260901132508 | 66 | 142 | 0.0 | 0.0 | 0.00 | 0.00 | 0.00 | 96 | 1013.7 |
| 20260901132006 | 66 | 142 | 0.0 | 0.0 | 0.00 | 0.00 | 0.00 | 96 | 1013.8 |
| 20260901131520 | 66 | 142 | 0.0 | 0.0 | 0.00 | 0.00 | 0.00 | 96 | 1013.9 |
| 20260901131010 | 66 | 142 | 0.0 | 0.0 | 0.00 | 0.00 | 0.00 | 96 | 1014.0 |
| 20260901130507 | 65 | 142 | 0.0 | 0.0 | 0.00 | 0.00 | 0.00 | 97 | 1014.0 |
| 20260901130007 | 65 | 142 | 0.0 | 0.0 | 0.00 | 0.00 | 0.00 | 97 | 1014.1 |
| 20260901125507 | 65 | 142 | 0.0 | 0.0 | 0.00 | 0.00 | 0.00 | 96 | 1014.3 |
| 20260901125006 | 65 | 142 | 0.0 | 0.0 | 0.00 | 0.00 | 0.00 | 96 | 1014.3 |
| 20260901124506 | 65 | 142 | 0.0 | 0.0 | 0.00 | 0.00 | 0.00 | 96 | 1014.4 |
| 20260901124006 | 65 | 142 | 0.0 | 0.0 | 0.00 | 0.00 | 0.00 | 96 | 1014.3 |
| 20260901123505 | 65 | 142 | 0.0 | 0.0 | 0.00 | 0.00 | 0.00 | 96 | 1014.4 |
| 20260901123005 | 65 | 142 | 0.0 | 0.0 | 0.00 | 0.00 | 0.00 | 96 | 1014.4 |
| 20260901122505 | 65 | 142 | 0.9 | 0.0 | 0.00 | 0.00 | 0.00 | 96 | 1014.4 |
| 20260901122004 | 65 | 142 | 1.7 | 0.0 | 0.00 | 0.00 | 0.00 | 96 | 1014.5 |
| 20260901121504 | 65 | 139 | 2.6 | 0.0 | 0.00 | 0.00 | 0.00 | 96 | 1014.4 |
| 20260901121005 | 65 | 101 | 3.5 | 0.0 | 0.00 | 0.00 | 0.00 | 96 | 1014.4 |
| 20260901120504 | 65 | 71 | 3.5 | 0.0 | 0.00 | 0.00 | 0.00 | 96 | 1014.5 |
| 20260901120004 | 65 | 70 | 4.3 | 0.0 | 0.00 | 0.00 | 0.00 | 96 | 1014.7 |
| 20260901115503 | 65 | 106 | 4.3 | 0.0 | 0.00 | 0.00 | 0.00 | 96 | 1014.5 |
| 20260901115003 | 65 | 56 | 4.3 | 0.0 | 0.00 | 0.00 | 0.00 | 96 | 1014.9 |
| 20260901114509 | 65 | 51 | 3.5 | 0.0 | 0.00 | 0.00 | 0.00 | 96 | 1014.8 |
| 20260901114003 | 65 | 50 | 1.7 | 0.0 | 0.00 | 0.00 | 0.00 | 96 | 1014.7 |
| 20260901113503 | 65 | 67 | 1.7 | 0.0 | 0.00 | 0.00 | 0.00 | 96 | 1014.5 |
| 20260901113003 | 65 | 86 | 1.7 | 0.0 | 0.00 | 0.00 | 0.00 | 96 | 1014.4 |
| 20260901112502 | 65 | 121 | 2.6 | 0.0 | 0.00 | 0.00 | 0.00 | 96 | 1014.5 |
| 20260901112002 | 65 | 122 | 3.5 | 0.0 | 0.00 | 0.00 | 0.00 | 96 | 1014.4 |
| 20260901111502 | 65 | 132 | 2.6 | 0.0 | 0.00 | 0.00 | 0.00 | 96 | 1014.3 |
| 20260901111001 | 65 | 31 | 1.7 | 0.0 | 0.00 | 0.00 | 0.00 | 96 | 1014.5 |
| 20260901110503 | 65 | 99 | 0.9 | 0.0 | 0.00 | 0.00 | 0.00 | 96 | 1014.5 |
| 20260901110002 | 65 | 109 | 1.7 | 0.0 | 0.00 | 0.00 | 0.00 | 96 | 1014.7 |
| 20260901105505 | 65 | 110 | 1.7 | 0.0 | 0.00 | 0.00 | 0.00 | 96 | 1014.4 |
| 20260901105004 | 65 | 321 | 0.9 | 0.0 | 0.00 | 0.00 | 0.00 | 96 | 1014.5 |
| 20260901104502 | 65 | 294 | 1.7 | 0.0 | 0.00 | 0.00 | 0.00 | 96 | 1014.5 |
| 20260901104001 | 65 | 286 | 1.7 | 0.0 | 0.00 | 0.00 | 0.00 | 96 | 1014.5 |
| 20260901103602 | 65 | 282 | 0.9 | 0.0 | 0.00 | 0.00 | 0.00 | 95 | 1014.4 |
| 20260901103100 | 65 | 150 | 0.0 | 0.0 | 0.00 | 0.00 | 0.00 | 95 | 1013.9 |
| 20260901102600 | 65 | 94 | 0.0 | 0.0 | 0.00 | 0.00 | 0.00 | 95 | 1014.2 |
| 20260901102101 | 65 | 81 | 0.9 | 0.0 | 0.00 | 0.00 | 0.00 | 95 | 1014.3 |
| 20260901101600 | 65 | 81 | 1.7 | 0.0 | 0.00 | 0.00 | 0.00 | 95 | 1014.3 |
| 20260901101059 | 65 | 96 | 2.6 | 0.0 | 0.00 | 0.00 | 0.00 | 95 | 1014.3 |
| 20260901100559 | 65 | 110 | 2.6 | 0.0 | 0.00 | 0.00 | 0.00 | 96 | 1014.1 |
| 20260901100101 | 65 | 27 | 3.5 | 0.0 | 0.00 | 0.00 | 0.00 | 95 | 1014.4 |
| 20260901095559 | 65 | 96 | 2.6 | 0.0 | 0.00 | 0.00 | 0.00 | 96 | 1014.0 |
| 20260901095059 | 65 | 15 | 0.9 | 0.0 | 0.00 | 0.00 | 0.00 | 95 | 1014.6 |
| 20260901094559 | 65 | 312 | 1.7 | 0.0 | 0.00 | 0.00 | 0.00 | 95 | 1014.9 |
| 20260901094058 | 65 | 108 | 2.6 | 0.0 | 0.00 | 0.00 | 0.00 | 95 | 1014.3 |
| 20260901093557 | 65 | 56 | 3.5 | 0.0 | 0.00 | 0.00 | 0.00 | 95 | 1014.0 |
| 20260901093101 | 65 | 355 | 3.5 | 0.0 | 0.00 | 0.00 | 0.00 | 96 | 1014.4 |
| 20260901092556 | 65 | 22 | 2.6 | 0.0 | 0.00 | 0.00 | 0.00 | 95 | 1014.0 |
| 20260901092056 | 65 | 76 | 0.9 | 0.0 | 0.00 | 0.00 | 0.00 | 94 | 1013.7 |
| 20260901091605 | 65 | 117 | 0.0 | 0.0 | 0.00 | 0.00 | 0.00 | 94 | 1013.7 |
| 20260901091055 | 65 | 122 | 0.9 | 0.0 | 0.00 | 0.00 | 0.00 | 94 | 1013.7 |
| 20260901090555 | 65 | 122 | 1.7 | 0.0 | 0.00 | 0.00 | 0.00 | 94 | 1013.7 |
| 20260901090057 | 65 | 121 | 2.6 | 0.0 | 0.00 | 0.00 | 0.00 | 94 | 1013.7 |
| 20260901085555 | 65 | 123 | 2.6 | 0.0 | 0.00 | 0.00 | 0.00 | 94 | 1013.5 |
| 20260901085054 | 65 | 100 | 1.7 | 0.0 | 0.00 | 0.00 | 0.00 | 94 | 1013.7 |
| 20260901084558 | 65 | 117 | 1.7 | 0.0 | 0.00 | 0.00 | 0.00 | 94 | 1013.7 |
| 20260901084054 | 65 | 117 | 1.7 | 0.0 | 0.00 | 0.00 | 0.00 | 94 | 1013.7 |
| 20260901083553 | 65 | 118 | 1.7 | 0.0 | 0.00 | 0.00 | 0.00 | 94 | 1013.8 |
| 20260901083052 | 65 | 119 | 1.7 | 0.0 | 0.00 | 0.00 | 0.00 | 94 | 1013.8 |
| 20260901082551 | 65 | 119 | 0.9 | 0.0 | 0.00 | 0.00 | 0.00 | 94 | 1013.9 |
| 20260901082050 | 65 | 119 | 0.0 | 0.0 | 0.00 | 0.00 | 0.00 | 94 | 1014.0 |
| 20260901081551 | 65 | 119 | 0.0 | 0.0 | 0.00 | 0.00 | 0.00 | 94 | 1014.1 |
| 20260901081051 | 65 | 119 | 0.0 | 0.0 | 0.00 | 0.00 | 0.00 | 93 | 1014.0 |
| 20260901080553 | 65 | 119 | 0.9 | 0.0 | 0.00 | 0.00 | 0.00 | 93 | 1014.1 |
| 20260901080050 | 65 | 119 | 2.6 | 0.0 | 0.00 | 0.00 | 0.00 | 93 | 1014.0 |
| 20260901075550 | 65 | 119 | 2.6 | 0.0 | 0.00 | 0.00 | 0.00 | 93 | 1014.1 |
| 20260901075048 | 65 | 121 | 2.6 | 0.0 | 0.00 | 0.00 | 0.00 | 93 | 1014.2 |
| 20260901074548 | 65 | 102 | 0.9 | 0.0 | 0.00 | 0.00 | 0.00 | 94 | 1014.2 |
| 20260901074049 | 64 | 80 | 0.0 | 0.0 | 0.00 | 0.00 | 0.00 | 94 | 1014.5 |
| 20260901073547 | 64 | 78 | 0.0 | 0.0 | 0.00 | 0.00 | 0.00 | 94 | 1014.6 |
| 20260901073046 | 64 | 77 | 0.9 | 0.0 | 0.00 | 0.00 | 0.00 | 94 | 1014.7 |
| 20260901072547 | 64 | 207 | 0.9 | 0.0 | 0.00 | 0.00 | 0.00 | 94 | 1014.7 |
| 20260901072049 | 64 | 207 | 0.9 | 0.0 | 0.00 | 0.00 | 0.00 | 94 | 1014.6 |
| 20260901071557 | 64 | 252 | 0.9 | 0.0 | 0.00 | 0.00 | 0.00 | 94 | 1014.6 |
| 20260901071050 | 64 | 252 | 0.9 | 0.0 | 0.00 | 0.00 | 0.00 | 94 | 1014.5 |
| 20260901070546 | 64 | 256 | 0.9 | 0.0 | 0.00 | 0.00 | 0.00 | 94 | 1014.8 |
| 20260901070046 | 64 | 257 | 0.9 | 0.0 | 0.00 | 0.00 | 0.00 | 94 | 1014.8 |
| 20260901065546 | 64 | 128 | 0.0 | 0.0 | 0.00 | 0.00 | 0.00 | 94 | 1014.7 |
| 20260901065046 | 64 | 128 | 0.0 | 0.0 | 0.00 | 0.00 | 0.00 | 94 | 1014.5 |
| 20260901064546 | 64 | 128 | 0.0 | 0.0 | 0.00 | 0.00 | 0.00 | 94 | 1014.5 |
| 20260901064045 | 64 | 128 | 0.0 | 0.0 | 0.00 | 0.00 | 0.00 | 94 | 1014.5 |
| 20260901063544 | 64 | 128 | 0.9 | 0.0 | 0.00 | 0.00 | 0.00 | 94 | 1014.6 |
| 20260901063043 | 64 | 128 | 1.7 | 0.0 | 0.00 | 0.00 | 0.00 | 94 | 1014.8 |
| 20260901062543 | 64 | 128 | 1.7 | 0.0 | 0.00 | 0.00 | 0.00 | 94 | 1014.9 |
| 20260901062045 | 64 | 128 | 2.6 | 0.0 | 0.00 | 0.00 | 0.00 | 94 | 1014.9 |
| 20260901061542 | 64 | 128 | 2.6 | 0.0 | 0.00 | 0.00 | 0.00 | 94 | 1014.9 |
| 20260901061042 | 64 | 128 | 2.6 | 0.0 | 0.00 | 0.00 | 0.00 | 94 | 1014.9 |